When you browse on this site, cookies collect data to enhance your experience and personalize the content and advertising you see.
Visit our Privacy Policy to learn more. By continuing to use the site, you agree to this use of cookies and data.
  • In Romania
  • List of Countries
  • For 7 days
  • Water Temperature
  • Satellite Maps
  • Weather Map
  • Weather Widgets
  • user-avatar
    Login

    Hourly Weather Zawtat

    Today, 23 February, Saturday

    Time Temperature Precipitation Wind Pressure Humidity
    00:00 +1°C° 0 mm 11 mps 742 mmHg 55%
    01:00 -1°C° 0 mm 13 mps 742 mmHg 46%
    02:00 -4°C° 0 mm 13 mps 742 mmHg 43%
    03:00 -5°C° 0 mm 12 mps 742 mmHg 40%
    04:00 -7°C° 0 mm 12 mps 742 mmHg 38%
    05:00 -8°C° 0 mm 14 mps 742 mmHg 38%
    06:00 -8°C° 0 mm 15 mps 743 mmHg 38%
    07:00 -8°C° 0 mm 16 mps 743 mmHg 37%
    08:00 -7°C° 0 mm 16 mps 743 mmHg 36%
    09:00 -4°C° 0 mm 15 mps 743 mmHg 35%
    10:00 -3°C° 0 mm 15 mps 743 mmHg 34%
    11:00 -1°C° 0 mm 15 mps 743 mmHg 34%
    12:00 -1°C° 0 mm 14 mps 744 mmHg 34%
    13:00 0°C° 0 mm 14 mps 744 mmHg 34%
    14:00 -1°C° 0 mm 13 mps 744 mmHg 35%
    15:00 -1°C° 0 mm 12 mps 744 mmHg 35%
    16:00 -1°C° 0 mm 11 mps 745 mmHg 36%
    17:00 -2°C° 0 mm 10 mps 745 mmHg 37%
    18:00 -3°C° 0 mm 10 mps 746 mmHg 37%
    19:00 -3°C° 0 mm 9 mps 746 mmHg 38%
    20:00 -2°C° 0 mm 8 mps 746 mmHg 37%
    21:00 -2°C° 0 mm 8 mps 747 mmHg 37%
    22:00 -3°C° 0 mm 7 mps 747 mmHg 37%
    23:00 -3°C° 0 mm 7 mps 747 mmHg 37%

    Tomorrow, 24 February, Sunday

    Time Temperature Precipitation Wind Pressure Humidity
    00:00 -3°C° 0 mm 7 mps 747 mmHg 36%
    01:00 -3°C° 0 mm 6 mps 747 mmHg 35%
    02:00 -3°C° 0 mm 6 mps 747 mmHg 36%
    03:00 -3°C° 0 mm 6 mps 747 mmHg 36%
    04:00 -3°C° 0 mm 6 mps 747 mmHg 36%
    05:00 -3°C° 0 mm 6 mps 747 mmHg 36%
    06:00 -3°C° 0 mm 6 mps 747 mmHg 36%
    07:00 -3°C° 0 mm 6 mps 747 mmHg 36%
    08:00 -2°C° 0 mm 6 mps 747 mmHg 31%
    09:00 +1°C° 0 mm 6 mps 747 mmHg 27%
    10:00 +2°C° 0 mm 6 mps 748 mmHg 23%
    11:00 +3°C° 0 mm 5 mps 747 mmHg 23%
    12:00 +5°C° 0 mm 5 mps 747 mmHg 23%
    13:00 +6°C° 0 mm 4 mps 747 mmHg 23%
    14:00 +5°C° 0 mm 4 mps 747 mmHg 26%
    15:00 +5°C° 0 mm 3 mps 747 mmHg 28%
    16:00 +5°C° 0 mm 3 mps 747 mmHg 31%
    17:00 +3°C° 0 mm 3 mps 748 mmHg 36%
    18:00 +2°C° 0 mm 3 mps 748 mmHg 42%
    19:00 0°C° 0 mm 3 mps 748 mmHg 47%
    20:00 -1°C° 0 mm 4 mps 749 mmHg 47%
    21:00 -1°C° 0 mm 4 mps 749 mmHg 47%
    22:00 -1°C° 0 mm 4 mps 749 mmHg 47%
    23:00 -1°C° 0 mm 4 mps 749 mmHg 46%

    Day after tomorrow, 25 February, Monday

    Time Temperature Precipitation Wind Pressure Humidity
    00:00 -1°C° 0 mm 4 mps 749 mmHg 45%
    01:00 -1°C° 0 mm 4 mps 749 mmHg 44%
    02:00 -1°C° 0 mm 4 mps 749 mmHg 45%
    03:00 -1°C° 0 mm 4 mps 749 mmHg 46%
    04:00 -2°C° 0 mm 4 mps 749 mmHg 46%
    05:00 -1°C° 0 mm 4 mps 749 mmHg 46%
    06:00 -1°C° 0 mm 4 mps 748 mmHg 46%
    07:00 -1°C° 0 mm 4 mps 748 mmHg 46%
    08:00 +1°C° 0 mm 4 mps 748 mmHg 42%
    09:00 +4°C° 0 mm 4 mps 748 mmHg 38%
    10:00 +5°C° 0 mm 4 mps 748 mmHg 34%
    11:00 +6°C° 0 mm 4 mps 747 mmHg 35%
    12:00 +7°C° 0 mm 4 mps 747 mmHg 35%
    13:00 +8°C° 0 mm 5 mps 747 mmHg 36%
    14:00 +7°C° 0 mm 6 mps 746 mmHg 38%
    15:00 +5°C° 0 mm 8 mps 746 mmHg 40%
    16:00 +3°C° 0 mm 9 mps 746 mmHg 42%
    17:00 +2°C° 0 mm 8 mps 746 mmHg 45%
    18:00 +1°C° 0 mm 6 mps 746 mmHg 49%
    19:00 0°C° 0 mm 5 mps 746 mmHg 52%
    20:00 0°C° 0 mm 5 mps 747 mmHg 52%
    21:00 0°C° 0 mm 4 mps 747 mmHg 53%
    22:00 0°C° 0 mm 3 mps 747 mmHg 53%
    23:00 0°C° 0 mm 3 mps 747 mmHg 52%

    26 February, Tuesday

    Time Temperature Precipitation Wind Pressure Humidity
    00:00 0°C° 0 mm 3 mps 748 mmHg 52%
    01:00 0°C° 0 mm 3 mps 748 mmHg 51%
    02:00 +1°C° 0 mm 3 mps 747 mmHg 49%
    03:00 +1°C° 0 mm 3 mps 747 mmHg 47%
    04:00 +1°C° 0 mm 3 mps 747 mmHg 45%
    05:00 +1°C° 0 mm 3 mps 747 mmHg 43%
    06:00 +2°C° 0 mm 3 mps 747 mmHg 40%
    07:00 +2°C° 0 mm 3 mps 747 mmHg 38%
    08:00 +4°C° 0 mm 3 mps 747 mmHg 34%
    09:00 +7°C° 0 mm 2 mps 746 mmHg 31%
    10:00 +10°C° 0 mm 2 mps 746 mmHg 27%
    11:00 +12°C° 0 mm 2 mps 746 mmHg 29%
    12:00 +14°C° 0 mm 2 mps 745 mmHg 31%
    13:00 +15°C° 0 mm 2 mps 745 mmHg 33%
    14:00 +14°C° 0 mm 2 mps 745 mmHg 38%
    15:00 +13°C° 0 mm 3 mps 745 mmHg 43%
    16:00 +12°C° 0 mm 3 mps 744 mmHg 48%
    17:00 +11°C° 0 mm 3 mps 744 mmHg 51%
    18:00 +10°C° 0 mm 3 mps 744 mmHg 54%
    19:00 +8°C° 0 mm 4 mps 745 mmHg 57%
    20:00 +7°C° 0 mm 4 mps 744 mmHg 57%
    21:00 +7°C° 0 mm 4 mps 744 mmHg 58%
    22:00 +7°C° 0 mm 4 mps 744 mmHg 58%
    23:00 +6°C° 0 mm 4 mps 744 mmHg 60%

    27 February, Wednesday

    Time Temperature Precipitation Wind Pressure Humidity
    00:00 +6°C° 0 mm 4 mps 743 mmHg 62%
    01:00 +6°C° 0 mm 4 mps 743 mmHg 64%
    02:00 +6°C° 0 mm 4 mps 742 mmHg 67%
    03:00 +6°C° 0 mm 5 mps 742 mmHg 70%
    04:00 +6°C° 0 mm 5 mps 742 mmHg 73%
    05:00 +5°C° 0 mm 5 mps 742 mmHg 74%
    06:00 +5°C° 0 mm 5 mps 742 mmHg 76%
    07:00 +5°C° 0 mm 5 mps 742 mmHg 77%
    08:00 +7°C° 0 mm 5 mps 742 mmHg 65%
    09:00 +9°C° 0 mm 5 mps 743 mmHg 52%
    10:00 +11°C° 0 mm 4 mps 743 mmHg 40%
    11:00 +12°C° 0 mm 4 mps 743 mmHg 37%
    12:00 +13°C° 0 mm 4 mps 743 mmHg 35%
    13:00 +13°C° 0 mm 4 mps 743 mmHg 32%
    14:00 +13°C° 0 mm 4 mps 743 mmHg 33%
    15:00 +13°C° 0 mm 4 mps 743 mmHg 35%
    16:00 +12°C° 0 mm 4 mps 743 mmHg 36%
    17:00 +11°C° 0 mm 4 mps 744 mmHg 42%
    18:00 +10°C° 0 mm 3 mps 744 mmHg 48%
    19:00 +8°C° 0 mm 3 mps 744 mmHg 53%
    20:00 +7°C° 0 mm 3 mps 745 mmHg 57%
    21:00 +7°C° 0 mm 3 mps 745 mmHg 60%
    22:00 +5°C° 0 mm 3 mps 745 mmHg 63%
    23:00 +5°C° 0 mm 3 mps 745 mmHg 64%

    28 February, Thursday

    Time Temperature Precipitation Wind Pressure Humidity
    00:00 +5°C° 0 mm 3 mps 745 mmHg 65%
    01:00 +5°C° 0 mm 3 mps 744 mmHg 65%
    02:00 +5°C° 0 mm 3 mps 744 mmHg 64%
    03:00 +6°C° 0 mm 2 mps 744 mmHg 62%
    04:00 +6°C° 0 mm 2 mps 744 mmHg 61%
    05:00 +6°C° 0 mm 2 mps 744 mmHg 59%
    06:00 +8°C° 0 mm 1 mps 744 mmHg 58%
    07:00 +8°C° 0 mm 1 mps 743 mmHg 57%
    08:00 +10°C° 0 mm 1 mps 743 mmHg 53%
    09:00 +12°C° 0 mm 1 mps 743 mmHg 50%
    10:00 +14°C° 0 mm 1 mps 743 mmHg 47%
    11:00 +14°C° 0 mm 1 mps 743 mmHg 48%
    12:00 +15°C° 0 mm 2 mps 742 mmHg 49%
    13:00 +15°C° 0 mm 2 mps 742 mmHg 50%
    14:00 +15°C° 0 mm 2 mps 741 mmHg 53%
    15:00 +14°C° 0 mm 2 mps 741 mmHg 56%
    16:00 +14°C° 0 mm 1 mps 741 mmHg 59%
    17:00 +13°C° 0 mm 1 mps 741 mmHg 65%
    18:00 +11°C° 0 mm 1 mps 741 mmHg 71%
    19:00 +9°C° 0 mm 0 mps 741 mmHg 77%
    20:00 +10°C° 0 mm 1 mps 741 mmHg 78%
    21:00 +10°C° 0 mm 1 mps 741 mmHg 79%
    22:00 +9°C° 0 mm 1 mps 741 mmHg 79%
    23:00 +9°C° 0 mm 1 mps 741 mmHg 79%
    Show more